User: anonymous   Login
Location: *
(45.9500°N, 9.0833°E)
Time: 10:48:53
(UTC+00:00)
Language:

Vanguard 2 Rocket - Orbit

View from above orbital plane
View from above orbital plane
View from above satellite
View from above satellite

Ground track
Ground track

The orbit data is extracted from the following two-line orbital elements,

1    12U 59001B   21164.09919611 -.00000019  00000-0 -23343-4 0  9999
2    12  32.8969 169.0261 1666033 172.1699 190.8689 11.44392196563888
Epoch (UTC): 13 June 2021 02:22:50
Eccentricity: 0.1666033
inclination: 32.8969°
perigee height: 554 km
apogee height: 3325 km
right ascension of ascending node: 169.0261°
argument of perigee: 172.1699°
revolutions per day: 11.44392196
mean anomaly at epoch: 190.8689°
orbit number at epoch: 56388

The dashed part of the orbit path shows where the satellite is in the earth's shadow,  

DLR